Home > Weather > Namur > Past weeks

Flag for Belgium Past Weather in Namur, Belgium — Yesterday and Last 2 Weeks

Now
77 °F

Passing clouds.


Feels Like: 79 °F
Forecast: 60 / 74 °F
Wind: 8 mph from West

Location: Charleroi / Gosselies

Current Time: Jul 24, 2016 at 6:36:44 PM

Latest Report: Jul 24, 2016 at 5:50 PM


Visibility: N/A

Pressure: 30.12 "Hg

Humidity: 54%

Dew Point: 59 °F

Location of NamurLocation

Past Weather in Namur — Graph

°F

Namur Temperature Yesterday

Maximum temperature yesterday: 72 °F (at 3:20 PM)
Minimum temperature yesterday: 63 °F (at 3:20 AM)
Average temperature yesterday: 65 °F

High & Low Weather Summary for the Past Weeks

 TemperatureHumidityPressure
High90 °F (Jul 20, 1:50 PM)100% (Jul 23, 3:20 AM)30.33 "Hg (Jul 23, 3:20 AM)
Low48 °F (Jul 15, 4:20 AM)35% (Jul 19, 4:20 PM)29.80 "Hg (Jul 10, 7:50 PM)
Average67 °F71%30.08 "Hg
* Reported Jul 9 4:20 PM — Jul 24 4:50 PM, Namur, Weather by CustomWeather, © 2016

Note: Actual official high and low records may vary slightly from our data, if they occured in-between our weather recording intervals... More about our weather records

Advertising

Namur Weather History for the Previous 24 Hours

Scroll right to see more
 ConditionsComfort  
Time TempWeatherWind HumidityBarometerVisibility
4:50 PM
Sun, Jul 24
77 °FScattered clouds.10 mph51%30.12 "HgN/A
4:20 PM75 °FScattered clouds.5 mph54%30.12 "HgN/A
3:50 PM77 °FScattered clouds.5 mph54%30.12 "HgN/A
3:20 PM77 °FScattered clouds.7 mph54%30.12 "HgN/A
2:50 PM75 °FScattered clouds.7 mph57%30.12 "HgN/A
2:20 PM75 °FPassing clouds.6 mph57%30.15 "HgN/A
1:50 PM73 °FPassing clouds.5 mph61%30.15 "HgN/A
1:20 PM73 °FPassing clouds.2 mph57%30.15 "HgN/A
12:50 PM73 °FPassing clouds.6 mph61%30.15 "HgN/A
12:20 PM72 °FPassing clouds.5 mph61%30.15 "HgN/A
11:50 AM72 °FPassing clouds.6 mph61%30.15 "HgN/A
11:20 AM70 °FPassing clouds.6 mph69%30.15 "HgN/A
10:50 AM68 °FPassing clouds.5 mph73%30.15 "HgN/A
10:20 AM66 °FPassing clouds.3 mph78%30.15 "HgN/A
9:50 AM64 °FPassing clouds.5 mph83%30.15 "Hg4 mi
9:20 AM63 °FPassing clouds.5 mph88%30.15 "Hg4 mi
8:50 AM63 °FFog.3 mph88%30.15 "Hg2 mi
8:20 AM61 °FFog.3 mph88%30.15 "Hg2 mi
7:50 AM59 °FFog.3 mph94%30.15 "Hg2 mi
7:20 AM59 °FFog.3 mph94%30.15 "Hg2 mi
6:50 AM57 °FFog.2 mph100%30.15 "Hg2 mi
6:20 AM57 °FFog.3 mph100%30.15 "Hg2 mi
5:50 AM59 °FFog.5 mph94%30.15 "Hg2 mi
5:20 AM59 °FFog.2 mph94%30.15 "Hg2 mi
4:50 AM59 °FFog.3 mph94%30.15 "Hg2 mi
4:20 AM59 °FFog.3 mph94%30.15 "Hg2 mi
3:50 AM61 °FFog.2 mph94%30.15 "Hg2 mi
3:20 AM61 °FFog.3 mph94%30.15 "Hg2 mi
2:50 AM61 °FFog.2 mph94%30.15 "Hg2 mi
2:20 AM61 °FFog.3 mph94%30.15 "Hg2 mi
1:50 AM61 °FFog.5 mph94%30.15 "Hg2 mi
1:20 AM63 °FFog.5 mph94%30.15 "Hg2 mi
12:50 AM63 °FFog.6 mph94%30.15 "Hg2 mi
12:20 AM63 °FFog.3 mph94%30.15 "Hg2 mi
11:50 PM
Sat, Jul 23
63 °FFog.5 mph94%30.15 "Hg2 mi
11:20 PM64 °FFog.3 mph88%30.15 "Hg2 mi
10:50 PM64 °FFog.2 mph94%30.15 "Hg3 mi
10:20 PM64 °FFog.3 mph94%30.15 "Hg3 mi
9:50 PM66 °FFog.3 mph88%30.12 "Hg3 mi
9:20 PM66 °FFog.3 mph88%30.12 "Hg3 mi
8:50 PM68 °FFog.6 mph83%30.12 "Hg3 mi
8:20 PM68 °FFog.6 mph83%30.12 "Hg3 mi
7:50 PM68 °FFog.5 mph83%30.12 "Hg3 mi
7:20 PM68 °FFog.6 mph88%30.12 "Hg3 mi
6:50 PM68 °FFog.6 mph83%30.12 "Hg3 mi
6:20 PM68 °FFog.5 mph88%30.12 "Hg3 mi
Weather by CustomWeather, © 2016

See weather overviewHow to use our weather pages